Regional Weather Roundup
Issued by NWS Little Rock, AR

Home | Current Version | Previous Version | Graphics & Text | Print | Product List | Glossary On
Versions: 1 2 3 4 5 6 7 8 9 10 11 12 13 14 15 16 17 18 19 20 21 22 23 24 25 26 27 28 29 30 31 32 33 34 35 36 37 38 39 40 41 42 43 44 45 46 47 48 49 50
000
ASUS44 KLZK 201105
RWRLZK

WEATHER ROUNDUP FOR ARKANSAS
NATIONAL WEATHER SERVICE LITTLE ROCK AR
500 AM CST SAT DEC 20 2014

NOTE: "FAIR" INDICATES FEW OR NO CLOUDS BELOW 12,000 FEET WITH NO
SIGNIFICANT WEATHER AND/OR OBSTRUCTIONS TO VISIBILITY.

ARZ001-003-010-029-201200-
NORTHWEST ARKANSAS

CITY           SKY/WX    TMP DP  RH WIND       PRES   REMARKS
FAYETTEVILLE   CLOUDY    39  39 100 CALM      30.21S
FORT SMITH     CLOUDY    42  38  85 CALM      30.23R
HARRISON       FOG       37  37 100 SE5       30.20R VSB 1/4
BENTONVILLE    CLOUDY    39  37  93 NW3       30.21R VSB 3/4
ROGERS         CLOUDY    39  39 100 W5        30.21R FOG
SILOAM SPGS    CLOUDY    39  34  81 NW3       30.22R VSB 1
HIGHFILL       CLOUDY    39  39 100 NW3       30.20R FOG
$$

ARZ004-005-016-201200-
NORTH CENTRAL ARKANSAS

CITY           SKY/WX    TMP DP  RH WIND       PRES   REMARKS
BATESVILLE     CLOUDY    37  30  75 CALM      30.24S
FLIPPIN        CLOUDY    36  32  87 CALM      30.22R
MTN HOME       CLOUDY    35  35 100 CALM      30.21R FOG
$$

ARZ040-041-201200-
WEST CENTRAL ARKANSAS

CITY           SKY/WX    TMP DP  RH WIND       PRES   REMARKS
MENA           CLOUDY    43  43 100 CALM      30.21S
MOUNT IDA      CLOUDY    41  39  93 CALM      30.19R
$$

ARZ009-017-025-026-028-201200-
NORTHEAST ARKANSAS

CITY           SKY/WX    TMP DP  RH WIND       PRES   REMARKS
CORNING        CLOUDY    37  36  93 NE7       30.25F FOG
JONESBORO      CLOUDY    38  34  85 NE5       30.25S
NEWPORT        CLOUDY    38  36  92 NE7       30.26S
WALNUT RIDGE   MOCLDY    37  32  81 NE6       30.24S
BLYTHEVILLE    CLOUDY    38  33  82 NE5       30.25S
$$

ARZ022-023-033-042-044-201200-
CENTRAL ARKANSAS

CITY           SKY/WX    TMP DP  RH WIND       PRES   REMARKS
LITTLE ROCK    CLOUDY    41  34  76 NE3       30.25R
N LITTLE ROCK    N/A     38  37  96 NE3       30.25R
JACKSONVILLE   CLOUDY    39  35  86 NE1       30.24R
SEARCY         CLOUDY    39  35  86 N3        30.26S
HOT SPRINGS    CLOUDY    40  37  89 E3        30.23S
RUSSELLVILLE   CLOUDY    41  36  82 CALM      30.23S
CLINTON        CLOUDY    39  37  93 CALM      30.26R FOG
$$

ARZ036-201200-
EAST ARKANSAS

CITY           SKY/WX    TMP DP  RH WIND       PRES   REMARKS
WEST MEMPHIS   CLOUDY    38  36  92 NE5       30.23S
$$

ARZ050-053-066-070-073-201200-
SOUTHWEST ARKANSAS

CITY           SKY/WX    TMP DP  RH WIND       PRES   REMARKS
ARKADELPHIA    CLOUDY    41  40  96 NE5       30.25S
CAMDEN         CLOUDY    41  37  87 CALM      30.23S
TEXARKANA      CLOUDY    43  41  93 N6        30.22S FOG
EL DORADO      CLOUDY    41  39  93 N5        30.22S
DE QUEEN       CLOUDY    44  42  93 CALM      30.22R FOG
$$

ARZ056-057-069-201200-
SOUTHEAST ARKANSAS

CITY           SKY/WX    TMP DP  RH WIND       PRES   REMARKS
PINE BLUFF     CLOUDY    40  36  86 NE6       30.24R
STUTTGART      CLOUDY    39  34  81 N5        30.25R
MONTICELLO     CLEAR     39  36  89 VRB3      30.22R FOG

$$





USA.gov is the U.S. government's official web portal to all federal, state and local government web resources and services.